Regional Weather Roundup
Issued by NWS

Home | Current Version | Previous Version | Graphics & Text | Print | Product List | Glossary Off
Versions: 1 2 3 4 5 6 7 8 9 10 11 12 13 14 15 16 17 18 19 20 21 22 23 24 25 26 27 28 29 30 31 32 33 34 35 36 37 38 39 40 41 42 43 44 45 46 47 48 49 50

000
ASUS43 KFSD 011610
RWRSD

WEATHER ROUNDUP FOR SOUTH DAKOTA
NATIONAL WEATHER SERVICE SIOUX FALLS SD
1100 AM CDT MON JUN 01 2015

NOTE: "FAIR" INDICATES FEW OR NO CLOUDS BELOW 12,000 FEET WITH NO
SIGNIFICANT WEATHER AND/OR OBSTRUCTIONS TO VISIBILITY.


SDZ001>005-009-010-012>017-011700-
NORTHWEST AND NORTH CENTRAL SOUTH DAKOTA

CITY           SKY/WX    TMP DP  RH WIND       PRES   REMARKS
BUFFALO          N/A     72  57  59 S13       29.85F
FAITH            N/A     67  56  67 S15       29.93
MOBRIDGE       SUNNY     68  54  60 S14       29.94S
$$

SDZ012>016-024>037-041>051-057-063-072>074-011700-
SOUTHWEST AND SOUTH CENTRAL SOUTH DAKOTA

CITY           SKY/WX    TMP DP  RH WIND       PRES   REMARKS
RAPID CTY ARPT SUNNY     74  59  59 SE12      29.94F
PIERRE         SUNNY     70  57  63 S13       29.95F
CUSTER         SUNNY     73  49  42 S8        30.07F
ELLSWORTH AFB  SUNNY     74  60  63 S14       29.93F
PHILIP         SUNNY     73  61  65 S8        29.93F
PINE RIDGE     SUNNY     76  58  53 S7        29.98F
SPEARFISH      FAIR      73  63  68 NE10      29.96S
WINNER         FAIR      73  56  54 S18G25    29.99F
$$

SDZ004>011-016>023-039-040-011700-
NORTHEAST SOUTH DAKOTA

CITY           SKY/WX    TMP DP  RH WIND       PRES   REMARKS
ABERDEEN       MOSUNNY   69  50  50 S21G32    30.02F
WATERTOWN      PTSUNNY   64  47  53 SE16G23   30.09F
BROOKINGS      CLOUDY    63  46  55 S16G23    30.13F
SISSETON         N/A     63  47  55 S22       30.08F
$$

SDZ017-020-022-023-036>040-048>070-011700-
SOUTHEAST SOUTH DAKOTA

CITY           SKY/WX    TMP DP  RH WIND       PRES   REMARKS
SIOUX FALLS    MOSUNNY   66  50  56 SE16G23   30.13F
HURON          SUNNY     68  50  52 S20G30    30.03F
CHAMBERLAIN    SUNNY     67  56  66 S15G22    30.00F
MITCHELL       CLOUDY    66  51  58 S18       30.07F
YANKTON        MOSUNNY   70  52  52 SE16      30.09F
$$

ABBREVIATIONS USED IN REMARKS
   TC - TEMPERATURE IN CELSIUS
  WCI - WIND CHILL INDEX
   HX - HEAT INDEX
  VSB - VISIBILITY




USA.gov is the U.S. government's official web portal to all federal, state and local government web resources and services.